Oakland, MD

7:37 AM EDT on April 23, 2017 (GMT -0400)
Oakland

Weather History for K2G4 - April, 2013

Change the Weather History Date:

Tuesday, April 9, 2013

  Actual Average (KMGW) Record (KMGW)
Temperature  
Mean Temperature 64 °F -  
Max Temperature 73 °F 58 °F 84 °F (1969)
Min Temperature 55 °F 37 °F 15 °F (1972)
Degree Days  
Heating Degree Days 1    
Growing Degree Days 14 (Base 50)    
Moisture  
Dew Point 46 °F    
Average Humidity 55    
Maximum Humidity 77    
Minimum Humidity 33    
Precipitation  
Precipitation 0.00 in - - ()
Sea Level Pressure  
Sea Level Pressure 30.09 in    
Wind  
Wind Speed 10 mph (WSW)    
Max Wind Speed 15 mph    
Max Gust Speed 25 mph    
Visibility 10 miles    
Events      
Averages and records for this station are not official NWS values.
T = Trace of Precipitation, MM = Missing Value Source: NWS Daily Summary

Daily Weather History Graph

Daily Weather History Graph

Search for Another Location

Airport or City:

Trip Planner

Search our weather history database for the weather conditions in past years. The results will help you decide how hot, cold, wet, or windy it might be!

Date:

Astronomy

Apr. 09, 2013 Rise Set
Actual Time 6:48 AM EDT 7:49 PM EDT
Civil Twilight 6:21 AM EDT 8:17 PM EDT
Nautical Twilight 5:48 AM EDT 8:49 PM EDT
Astronomical Twilight 5:14 AM EDT 9:24 PM EDT
Moon 6:10 AM EDT (4/9) 7:23 PM EDT (4/9)
Length of Visible Light 13h 55m
Length of Day
13h 00m
Waning Crescent, 1% of the Moon is Illuminated
Apr 9
Waning Crescent
Apr 10
New
Apr 18
First Quarter
Apr 25
Full
May 2
Last Quarter

Hourly Weather History & Observations

Time (EDT) Temp. Dew Point Humidity Pressure Visibility Wind Dir Wind Speed Gust Speed Precip Events Conditions
12:15 AM 59.0 °F 42.8 °F 55% 30.06 in 10.0 mi WSW 12.7 mph 20.7 mph N/A   Clear
12:35 AM 59.0 °F 42.8 °F 55% 30.06 in 10.0 mi WSW 12.7 mph 19.6 mph N/A   Clear
12:55 AM 59.0 °F 42.8 °F 55% 30.06 in 10.0 mi West 8.1 mph 18.4 mph N/A   Clear
1:15 AM 59.0 °F 44.6 °F 59% 30.06 in 10.0 mi West 11.5 mph 17.3 mph N/A   Clear
1:35 AM 59.0 °F 44.6 °F 59% 30.05 in 10.0 mi WSW 10.4 mph 19.6 mph N/A   Clear
1:55 AM 59.0 °F 44.6 °F 59% 30.06 in 10.0 mi West 11.5 mph 19.6 mph N/A   Clear
2:15 AM 57.2 °F 44.6 °F 63% 30.06 in 10.0 mi West 12.7 mph 18.4 mph N/A   Clear
2:35 AM 57.2 °F 44.6 °F 63% 30.06 in 10.0 mi West 11.5 mph 17.3 mph N/A   Clear
2:55 AM 57.2 °F 44.6 °F 63% 30.06 in 10.0 mi West 9.2 mph 16.1 mph N/A   Clear
3:15 AM 55.4 °F 44.6 °F 67% 30.06 in 10.0 mi West 12.7 mph 17.3 mph N/A   Clear
3:35 AM 55.4 °F 44.6 °F 67% 30.06 in 10.0 mi West 12.7 mph 20.7 mph N/A   Clear
3:55 AM 55.4 °F 44.6 °F 67% 30.06 in 10.0 mi West 12.7 mph 20.7 mph N/A   Clear
4:15 AM 55.4 °F 44.6 °F 67% 30.07 in 10.0 mi West 8.1 mph 18.4 mph N/A   Clear
4:35 AM 55.4 °F 46.4 °F 72% 30.08 in 10.0 mi West 9.2 mph 17.3 mph N/A   Mostly Cloudy
4:55 AM 55.4 °F 46.4 °F 72% 30.08 in 10.0 mi West 10.4 mph 18.4 mph N/A   Overcast
5:15 AM 55.4 °F 46.4 °F 72% 30.09 in 10.0 mi West 10.4 mph 17.3 mph N/A   Overcast
5:35 AM 55.4 °F 46.4 °F 72% 30.10 in 10.0 mi West 8.1 mph 19.6 mph N/A   Overcast
5:55 AM 55.4 °F 46.4 °F 72% 30.11 in 10.0 mi West 11.5 mph 16.1 mph N/A   Overcast
6:15 AM 55.4 °F 46.4 °F 72% 30.11 in 10.0 mi West 10.4 mph - N/A   Overcast
6:35 AM 55.4 °F 46.4 °F 72% 30.12 in 10.0 mi West 12.7 mph 21.9 mph N/A   Overcast
7:00 AM 55.4 °F 48.2 °F 77% 30.13 in 10.0 mi West 11.5 mph 16.1 mph N/A   Overcast
7:20 AM 55.4 °F 48.2 °F 77% 30.13 in 10.0 mi West 10.4 mph 20.7 mph N/A   Overcast
7:40 AM 55.4 °F 48.2 °F 77% 30.13 in 10.0 mi West 9.2 mph 18.4 mph N/A   Scattered Clouds
8:00 AM 55.4 °F 48.2 °F 77% 30.14 in 10.0 mi West 10.4 mph 16.1 mph N/A   Clear
8:20 AM 55.4 °F 48.2 °F 77% 30.14 in 10.0 mi WSW 9.2 mph - N/A   Clear
8:40 AM 57.2 °F 48.2 °F 72% 30.15 in 10.0 mi West 10.4 mph - N/A   Clear
9:00 AM 59.0 °F 48.2 °F 67% 30.15 in 10.0 mi West 8.1 mph - N/A   Scattered Clouds
9:20 AM 59.0 °F 50.0 °F 72% 30.15 in 10.0 mi West 6.9 mph - N/A   Mostly Cloudy
9:40 AM 59.0 °F 50.0 °F 72% 30.16 in 10.0 mi West 5.8 mph - N/A   Overcast
10:00 AM 59.0 °F 50.0 °F 72% 30.16 in 10.0 mi WSW 5.8 mph - N/A   Mostly Cloudy
10:20 AM 60.8 °F 50.0 °F 68% 30.16 in 10.0 mi WNW 9.2 mph - N/A   Scattered Clouds
10:40 AM 62.6 °F 50.0 °F 63% 30.16 in 10.0 mi West 5.8 mph - N/A   Scattered Clouds
11:00 AM 62.6 °F 50.0 °F 63% 30.16 in 10.0 mi West 5.8 mph - N/A   Mostly Cloudy
11:20 AM 64.4 °F 50.0 °F 59% 30.17 in 10.0 mi WSW 8.1 mph - N/A   Mostly Cloudy
11:40 AM 64.4 °F 50.0 °F 59% 30.17 in 10.0 mi WSW 6.9 mph - N/A   Mostly Cloudy
12:00 PM 68.0 °F 48.2 °F 49% 30.16 in 10.0 mi WSW 9.2 mph - N/A   Scattered Clouds
12:20 PM 68.0 °F 46.4 °F 46% 30.15 in 10.0 mi WSW 10.4 mph 18.4 mph N/A   Scattered Clouds
12:40 PM 68.0 °F 46.4 °F 46% 30.14 in 10.0 mi WSW 11.5 mph 17.3 mph N/A   Clear
1:00 PM 69.8 °F 46.4 °F 43% 30.13 in 10.0 mi SW 10.4 mph - N/A   Clear
1:20 PM 68.0 °F 46.4 °F 46% 30.13 in 10.0 mi West 9.2 mph 19.6 mph N/A   Scattered Clouds
1:40 PM 69.8 °F 44.6 °F 40% 30.13 in 10.0 mi West 10.4 mph 17.3 mph N/A   Scattered Clouds
2:00 PM 69.8 °F 44.6 °F 40% 30.11 in 10.0 mi WSW 8.1 mph 17.3 mph N/A   Scattered Clouds
2:20 PM 71.6 °F 44.6 °F 38% 30.11 in 10.0 mi West 13.8 mph 17.3 mph N/A   Clear
2:40 PM 71.6 °F 44.6 °F 38% 30.10 in 10.0 mi SW 9.2 mph 18.4 mph N/A   Scattered Clouds
3:00 PM 71.6 °F 44.6 °F 38% 30.09 in 10.0 mi WSW 12.7 mph 19.6 mph N/A   Scattered Clouds
3:20 PM 71.6 °F 44.6 °F 38% 30.09 in 10.0 mi WSW 10.4 mph 20.7 mph N/A   Clear
4:20 PM 73.4 °F 44.6 °F 36% 30.06 in 10.0 mi SSW 9.2 mph 18.4 mph N/A   Scattered Clouds
4:40 PM 71.6 °F 42.8 °F 35% 30.06 in 10.0 mi WSW 13.8 mph 21.9 mph N/A   Clear
5:00 PM 73.4 °F 42.8 °F 33% 30.06 in 10.0 mi WSW 9.2 mph - N/A   Clear
5:20 PM 73.4 °F 42.8 °F 33% 30.06 in 10.0 mi WSW 10.4 mph 18.4 mph N/A   Scattered Clouds
5:40 PM 73.4 °F 44.6 °F 36% 30.06 in 10.0 mi WSW 10.4 mph 21.9 mph N/A   Scattered Clouds
6:00 PM 71.6 °F 44.6 °F 38% 30.06 in 10.0 mi WSW 8.1 mph 19.6 mph N/A   Clear
6:20 PM 71.6 °F 44.6 °F 38% 30.06 in 10.0 mi SW 10.4 mph 18.4 mph N/A   Clear
6:40 PM 71.6 °F 44.6 °F 38% 30.05 in 10.0 mi WSW 6.9 mph 16.1 mph N/A   Clear
7:00 PM 69.8 °F 44.6 °F 40% 30.05 in 10.0 mi WSW 5.8 mph 16.1 mph N/A   Clear
7:20 PM 69.8 °F 44.6 °F 40% 30.06 in 10.0 mi WSW 8.1 mph - N/A   Clear
7:40 PM 68.0 °F 46.4 °F 46% 30.06 in 10.0 mi WSW 5.8 mph - N/A   Clear
8:00 PM 68.0 °F 46.4 °F 46% 30.06 in 10.0 mi WSW 8.1 mph - N/A   Clear
8:20 PM 66.2 °F 46.4 °F 49% 30.06 in 10.0 mi WSW 5.8 mph - N/A   Clear
8:40 PM 66.2 °F 46.4 °F 49% 30.05 in 10.0 mi SW 6.9 mph - N/A   Clear
9:00 PM 66.2 °F 46.4 °F 49% 30.06 in 10.0 mi WSW 5.8 mph - N/A   Clear
9:20 PM 64.4 °F 46.4 °F 52% 30.06 in 10.0 mi SW 5.8 mph - N/A   Clear
9:40 PM 64.4 °F 46.4 °F 52% 30.05 in 10.0 mi SW 6.9 mph - N/A   Clear
10:00 PM 64.4 °F 46.4 °F 52% 30.05 in 10.0 mi SW 5.8 mph - N/A   Clear
10:20 PM 64.4 °F 46.4 °F 52% 30.05 in 10.0 mi SW 6.9 mph - N/A   Clear
10:40 PM 64.4 °F 46.4 °F 52% 30.04 in 10.0 mi SW 8.1 mph - N/A   Clear
11:00 PM 66.2 °F 44.6 °F 46% 30.04 in 10.0 mi WSW 10.4 mph 20.7 mph N/A   Clear
11:20 PM 66.2 °F 44.6 °F 46% 30.03 in 10.0 mi WSW 15.0 mph 25.3 mph N/A   Clear
11:40 PM 66.2 °F 44.6 °F 46% 30.03 in 10.0 mi WSW 9.2 mph 20.7 mph N/A   Clear